| time (UTC) | temp C | wind direction | speed KPH | gust KPH | rain 1hr cm | rain 24hr cm | rain mn cm | humidity % | barometer mb |
| 20260502130732 | 12 | 356 | 0.0 | 6.4 | 0.00 | 0.00 | 0.00 | 84 | 1021.9 |
| 20260502122732 | 11 | 2 | 0.0 | 0.0 | 0.00 | 0.00 | 0.00 | 85 | 1021.2 |
| 20260502122032 | 11 | 3 | 0.0 | 0.0 | 0.00 | 0.00 | 0.00 | 85 | 1021.2 |
| 20260502121332 | 11 | 3 | 0.0 | 0.0 | 0.00 | 0.00 | 0.00 | 84 | 1021.2 |
| 20260502120632 | 11 | 3 | 0.0 | 0.0 | 0.00 | 0.00 | 0.00 | 84 | 1021.2 |
| 20260502115932 | 11 | 2 | 0.0 | 0.0 | 0.00 | 0.00 | 0.00 | 84 | 1020.9 |
| 20260502114531 | 11 | 3 | 0.0 | 0.0 | 0.00 | 0.00 | 0.00 | 84 | 1020.6 |
| 20260502113131 | 11 | 2 | 0.0 | 0.0 | 0.00 | 0.00 | 0.00 | 85 | 1020.2 |
| 20260502112432 | 11 | 3 | 0.0 | 0.0 | 0.00 | 0.00 | 0.00 | 85 | 1020.2 |
| 20260502111733 | 11 | 3 | 0.0 | 0.0 | 0.00 | 0.00 | 0.00 | 85 | 1020.2 |
| 20260502110332 | 11 | 3 | 0.0 | 0.0 | 0.00 | 0.00 | 0.00 | 85 | 1019.9 |
| 20260502105632 | 11 | 3 | 0.0 | 0.0 | 0.00 | 0.00 | 0.00 | 85 | 1019.9 |
| 20260502104932 | 11 | 3 | 0.0 | 0.0 | 0.00 | 0.00 | 0.00 | 84 | 1019.9 |
| 20260502104233 | 11 | 3 | 0.0 | 0.0 | 0.00 | 0.00 | 0.00 | 85 | 1020.2 |
| 20260502103531 | 10 | 3 | 0.0 | 0.0 | 0.00 | 0.00 | 0.00 | 84 | 1020.2 |
| 20260502102832 | 11 | 3 | 0.0 | 0.0 | 0.00 | 0.00 | 0.00 | 84 | 1019.9 |
| 20260502102132 | 11 | 3 | 0.0 | 0.0 | 0.00 | 0.00 | 0.00 | 84 | 1020.2 |
| 20260502100731 | 11 | 3 | 0.0 | 0.0 | 0.00 | 0.00 | 0.00 | 84 | 1019.9 |
| 20260502091131 | 11 | 3 | 0.0 | 0.0 | 0.00 | 0.00 | 0.00 | 85 | 1019.6 |
| 20260502090433 | 11 | 4 | 0.0 | 0.0 | 0.00 | 0.00 | 0.00 | 85 | 1019.6 |
| 20260502071231 | 11 | 5 | 0.0 | 0.0 | 0.00 | 0.00 | 0.00 | 84 | 1019.9 |
| 20260502070531 | 11 | 5 | 0.0 | 0.0 | 0.00 | 0.00 | 0.00 | 83 | 1019.6 |
| 20260502065831 | 11 | 5 | 0.0 | 0.0 | 0.00 | 0.00 | 0.00 | 83 | 1019.9 |
| 20260502065131 | 11 | 11 | 0.0 | 0.0 | 0.00 | 0.00 | 0.00 | 83 | 1019.9 |
| 20260502064431 | 11 | 11 | 0.0 | 0.0 | 0.00 | 0.00 | 0.00 | 83 | 1019.9 |
| 20260502063731 | 11 | 11 | 0.0 | 0.0 | 0.00 | 0.00 | 0.00 | 83 | 1019.6 |
| 20260502063032 | 11 | 11 | 0.0 | 0.0 | 0.00 | 0.00 | 0.00 | 82 | 1019.9 |
| 20260502061631 | 12 | 11 | 0.0 | 0.0 | 0.00 | 0.00 | 0.00 | 82 | 1019.9 |
| 20260502060933 | 12 | 11 | 0.0 | 0.0 | 0.00 | 0.00 | 0.00 | 81 | 1019.9 |
| 20260502054831 | 12 | 11 | 0.0 | 0.0 | 0.00 | 0.00 | 0.00 | 80 | 1019.6 |
| 20260502054132 | 12 | 11 | 0.0 | 0.0 | 0.00 | 0.00 | 0.00 | 80 | 1019.9 |
| 20260502053431 | 12 | 11 | 0.0 | 0.0 | 0.00 | 0.00 | 0.00 | 80 | 1019.6 |
| 20260502052732 | 12 | 11 | 0.0 | 0.0 | 0.00 | 0.00 | 0.00 | 79 | 1019.9 |
| 20260502052031 | 12 | 11 | 0.0 | 0.0 | 0.00 | 0.00 | 0.00 | 78 | 1019.6 |
| 20260502051331 | 12 | 11 | 0.0 | 0.0 | 0.00 | 0.00 | 0.00 | 78 | 1019.6 |
| 20260502050631 | 12 | 10 | 0.0 | 0.0 | 0.00 | 0.00 | 0.00 | 77 | 1019.6 |
| 20260502045931 | 13 | 10 | 0.0 | 0.0 | 0.00 | 0.00 | 0.00 | 77 | 1019.9 |
| 20260502045232 | 13 | 10 | 0.0 | 0.0 | 0.00 | 0.00 | 0.00 | 76 | 1019.9 |
| 20260502044534 | 13 | 10 | 0.0 | 0.0 | 0.00 | 0.00 | 0.00 | 76 | 1019.6 |
| 20260502043834 | 13 | 10 | 0.0 | 0.0 | 0.00 | 0.00 | 0.00 | 76 | 1019.6 |
| 20260502042431 | 13 | 9 | 0.0 | 0.0 | 0.00 | 0.00 | 0.00 | 75 | 1019.9 |
| 20260502041731 | 13 | 9 | 0.0 | 0.0 | 0.00 | 0.00 | 0.00 | 75 | 1019.6 |
| 20260502041032 | 13 | 9 | 0.0 | 0.0 | 0.00 | 0.00 | 0.00 | 75 | 1019.6 |
| 20260502040332 | 14 | 10 | 0.0 | 0.0 | 0.00 | 0.00 | 0.00 | 74 | 1019.2 |
| 20260502035631 | 14 | 10 | 0.0 | 0.0 | 0.00 | 0.00 | 0.00 | 74 | 1019.6 |
| 20260502034931 | 14 | 10 | 0.0 | 0.0 | 0.00 | 0.00 | 0.00 | 74 | 1019.6 |
| 20260502034231 | 14 | 10 | 0.0 | 0.0 | 0.00 | 0.00 | 0.00 | 74 | 1019.6 |
| 20260502033531 | 14 | 6 | 0.0 | 0.0 | 0.00 | 0.00 | 0.00 | 73 | 1019.6 |
| 20260502032831 | 14 | 6 | 0.0 | 0.0 | 0.00 | 0.00 | 0.00 | 73 | 1019.6 |
| 20260502032131 | 15 | 6 | 0.0 | 0.0 | 0.00 | 0.00 | 0.00 | 73 | 1019.2 |
| 20260502031431 | 15 | 5 | 0.0 | 0.0 | 0.00 | 0.00 | 0.00 | 73 | 1019.2 |
| 20260502030031 | 15 | 10 | 0.0 | 0.0 | 0.00 | 0.00 | 0.00 | 73 | 1019.2 |
| 20260502024631 | 15 | 10 | 0.0 | 0.0 | 0.00 | 0.00 | 0.00 | 73 | 1019.2 |
| 20260502023931 | 15 | 10 | 0.0 | 0.0 | 0.00 | 0.00 | 0.00 | 73 | 1018.5 |
| 20260502023231 | 15 | 10 | 0.0 | 0.0 | 0.00 | 0.00 | 0.00 | 73 | 1019.2 |
| 20260502022530 | 15 | 10 | 0.0 | 0.0 | 0.00 | 0.00 | 0.00 | 72 | 1018.9 |
| 20260502020431 | 15 | 10 | 0.0 | 6.4 | 0.00 | 0.00 | 0.00 | 72 | 1018.5 |
| 20260502015731 | 15 | 10 | 0.0 | 6.4 | 0.00 | 0.00 | 0.00 | 71 | 1018.5 |
| 20260502015030 | 15 | 10 | 0.0 | 6.4 | 0.00 | 0.00 | 0.00 | 71 | 1018.2 |
| 20260502014330 | 15 | 10 | 0.0 | 6.4 | 0.00 | 0.00 | 0.00 | 71 | 1018.2 |
| 20260502013631 | 15 | 10 | 0.0 | 6.4 | 0.00 | 0.00 | 0.00 | 70 | 1018.2 |
| 20260502012931 | 15 | 10 | 0.0 | 6.4 | 0.00 | 0.00 | 0.00 | 70 | 1017.9 |
| 20260502012230 | 15 | 14 | 0.0 | 6.4 | 0.00 | 0.00 | 0.00 | 70 | 1017.5 |
| 20260502011531 | 16 | 16 | 3.2 | 6.4 | 0.00 | 0.00 | 0.00 | 70 | 1017.2 |
| 20260502010831 | 15 | 15 | 3.2 | 6.4 | 0.00 | 0.00 | 0.00 | 69 | 1017.5 |
| 20260502010131 | 16 | 12 | 0.0 | 6.4 | 0.00 | 0.00 | 0.00 | 69 | 1017.5 |
| 20260502005430 | 16 | 11 | 0.0 | 6.4 | 0.00 | 0.00 | 0.00 | 68 | 1017.5 |
| 20260502004031 | 16 | 9 | 0.0 | 6.4 | 0.00 | 0.00 | 0.00 | 68 | 1017.2 |
| 20260502003330 | 16 | 9 | 0.0 | 6.4 | 0.00 | 0.00 | 0.00 | 67 | 1017.2 |
| 20260502002631 | 16 | 9 | 0.0 | 6.4 | 0.00 | 0.00 | 0.00 | 67 | 1017.2 |
| 20260502001931 | 16 | 17 | 0.0 | 6.4 | 0.00 | 0.00 | 0.00 | 66 | 1017.2 |
| 20260502001232 | 16 | 17 | 0.0 | 6.4 | 0.00 | 0.00 | 0.00 | 66 | 1017.2 |
| 20260502000532 | 16 | 8 | 0.0 | 9.7 | 0.00 | 0.00 | 0.00 | 66 | 1016.8 |
| 20260501235834 | 16 | 6 | 0.0 | 9.7 | 0.00 | 0.00 | 0.00 | 66 | 1016.8 |
| 20260501235133 | 16 | 5 | 0.0 | 9.7 | 0.00 | 0.00 | 0.00 | 66 | 1016.5 |
| 20260501233733 | 17 | 11 | 8.0 | 9.7 | 0.00 | 0.00 | 0.00 | 65 | 1016.5 |
| 20260501232333 | 17 | 5 | 0.0 | 9.7 | 0.00 | 0.00 | 0.00 | 64 | 1016.2 |
| 20260501230234 | 17 | 23 | 0.0 | 9.7 | 0.00 | 0.00 | 0.00 | 64 | 1015.8 |
| 20260501224133 | 17 | 9 | 0.0 | 9.7 | 0.00 | 0.00 | 0.00 | 63 | 1016.2 |
| 20260501223433 | 17 | 26 | 3.2 | 9.7 | 0.00 | 0.00 | 0.00 | 63 | 1015.8 |
| 20260501222733 | 17 | 353 | 8.0 | 9.7 | 0.00 | 0.00 | 0.00 | 63 | 1015.8 |
| 20260501222032 | 17 | 9 | 3.2 | 9.7 | 0.00 | 0.00 | 0.00 | 63 | 1015.8 |
| 20260501221333 | 17 | 2 | 8.0 | 9.7 | 0.00 | 0.00 | 0.00 | 63 | 1016.2 |
| 20260501220633 | 17 | 7 | 0.0 | 12.9 | 0.00 | 0.00 | 0.00 | 62 | 1016.2 |
| 20260501215933 | 17 | 4 | 0.0 | 12.9 | 0.00 | 0.00 | 0.00 | 62 | 1016.2 |
| 20260501215239 | 17 | 338 | 3.2 | 12.9 | 0.00 | 0.00 | 0.00 | 62 | 1015.8 |
| 20260501214532 | 17 | 4 | 8.0 | 16.1 | 0.00 | 0.00 | 0.00 | 61 | 1015.8 |
| 20260501213833 | 17 | 8 | 3.2 | 16.1 | 0.00 | 0.00 | 0.00 | 61 | 1016.2 |
| 20260501213133 | 17 | 356 | 8.0 | 16.1 | 0.00 | 0.00 | 0.00 | 61 | 1015.8 |
| 20260501212432 | 17 | 16 | 3.2 | 16.1 | 0.00 | 0.00 | 0.00 | 61 | 1015.8 |
| 20260501211033 | 17 | 5 | 3.2 | 22.5 | 0.00 | 0.00 | 0.00 | 61 | 1016.2 |
| 20260501205633 | 17 | 343 | 0.0 | 22.5 | 0.00 | 0.00 | 0.00 | 61 | 1015.8 |
| 20260501204933 | 17 | 0 | 8.0 | 22.5 | 0.00 | 0.00 | 0.00 | 60 | 1016.2 |
| 20260501204232 | 17 | 10 | 8.0 | 22.5 | 0.00 | 0.00 | 0.00 | 59 | 1016.8 |
| 20260501202833 | 17 | 3 | 3.2 | 22.5 | 0.00 | 0.00 | 0.00 | 58 | 1016.5 |
| 20260501202132 | 17 | 107 | 17.7 | 16.1 | 0.00 | 0.00 | 0.00 | 59 | 1016.5 |
| 20260501201433 | 17 | 5 | 8.0 | 27.4 | 0.00 | 0.00 | 0.00 | 59 | 1016.8 |
| 20260501200733 | 17 | 4 | 8.0 | 27.4 | 0.00 | 0.00 | 0.00 | 59 | 1017.2 |
| 20260501200032 | 17 | 22 | 12.9 | 27.4 | 0.00 | 0.00 | 0.00 | 60 | 1016.8 |
| 20260501195337 | 17 | 4 | 0.0 | 27.4 | 0.00 | 0.00 | 0.00 | 61 | 1016.8 |
| 20260501194634 | 17 | 348 | 12.9 | 27.4 | 0.00 | 0.00 | 0.00 | 60 | 1016.2 |
| 20260501193933 | 17 | 357 | 3.2 | 27.4 | 0.00 | 0.00 | 0.00 | 60 | 1016.2 |
| 20260501193232 | 17 | 16 | 8.0 | 27.4 | 0.00 | 0.00 | 0.00 | 58 | 1015.8 |
| 20260501192532 | 17 | 26 | 27.4 | 19.3 | 0.00 | 0.00 | 0.00 | 60 | 1016.2 |
| 20260501191832 | 17 | 357 | 3.2 | 19.3 | 0.00 | 0.00 | 0.00 | 58 | 1016.5 |
| 20260501191134 | 17 | 313 | 8.0 | 19.3 | 0.00 | 0.00 | 0.00 | 59 | 1016.2 |
| 20260501190433 | 17 | 11 | 8.0 | 33.8 | 0.00 | 0.00 | 0.00 | 60 | 1016.2 |
| 20260501185032 | 18 | 24 | 17.7 | 33.8 | 0.00 | 0.00 | 0.00 | 60 | 1016.2 |
| 20260501184333 | 18 | 17 | 8.0 | 33.8 | 0.00 | 0.00 | 0.00 | 59 | 1016.5 |
| 20260501183632 | 18 | 16 | 17.7 | 33.8 | 0.00 | 0.00 | 0.00 | 60 | 1016.5 |
| 20260501182933 | 18 | 51 | 12.9 | 33.8 | 0.00 | 0.00 | 0.00 | 59 | 1016.5 |
| 20260501182232 | 18 | 104 | 22.5 | 33.8 | 0.00 | 0.00 | 0.00 | 61 | 1016.5 |
| 20260501181533 | 18 | 29 | 30.6 | 33.8 | 0.00 | 0.00 | 0.00 | 60 | 1016.8 |
| 20260501180833 | 18 | 342 | 8.0 | 19.3 | 0.00 | 0.00 | 0.00 | 58 | 1016.8 |
| 20260501180133 | 18 | 128 | 12.9 | 19.3 | 0.00 | 0.00 | 0.00 | 61 | 1017.2 |
| 20260501175432 | 17 | 21 | 8.0 | 27.4 | 0.00 | 0.00 | 0.00 | 60 | 1016.8 |
| 20260501174733 | 17 | 5 | 8.0 | 27.4 | 0.00 | 0.00 | 0.00 | 61 | 1017.2 |
| 20260501174032 | 17 | 66 | 8.0 | 27.4 | 0.00 | 0.00 | 0.00 | 60 | 1017.5 |
| 20260501173332 | 17 | 31 | 8.0 | 27.4 | 0.00 | 0.00 | 0.00 | 60 | 1017.5 |
| 20260501171932 | 17 | 102 | 12.9 | 27.4 | 0.00 | 0.00 | 0.00 | 62 | 1017.5 |
| 20260501171233 | 17 | 351 | 3.2 | 27.4 | 0.00 | 0.00 | 0.00 | 63 | 1017.9 |
| 20260501170532 | 17 | 359 | 3.2 | 19.3 | 0.00 | 0.00 | 0.00 | 66 | 1017.9 |
| 20260501165132 | 16 | 96 | 12.9 | 16.1 | 0.00 | 0.00 | 0.00 | 68 | 1017.5 |
| 20260501164432 | 16 | 318 | 0.0 | 19.3 | 0.00 | 0.00 | 0.00 | 68 | 1017.9 |
| 20260501163732 | 16 | 4 | 3.2 | 19.3 | 0.00 | 0.00 | 0.00 | 69 | 1017.9 |
| 20260501163032 | 16 | 19 | 3.2 | 19.3 | 0.00 | 0.00 | 0.00 | 68 | 1017.9 |
| 20260501161632 | 16 | 359 | 3.2 | 19.3 | 0.00 | 0.00 | 0.00 | 71 | 1018.2 |
| 20260501160232 | 15 | 30 | 8.0 | 19.3 | 0.00 | 0.00 | 0.00 | 72 | 1017.9 |
| 20260501155532 | 15 | 18 | 3.2 | 9.7 | 0.00 | 0.00 | 0.00 | 73 | 1017.9 |
| 20260501154132 | 15 | 35 | 3.2 | 9.7 | 0.00 | 0.00 | 0.00 | 73 | 1017.9 |
| 20260501153432 | 15 | 11 | 0.0 | 9.7 | 0.00 | 0.00 | 0.00 | 74 | 1018.2 |
| 20260501152732 | 15 | 9 | 0.0 | 12.9 | 0.00 | 0.00 | 0.00 | 74 | 1018.5 |
| 20260501152032 | 15 | 1 | 3.2 | 16.1 | 0.00 | 0.00 | 0.00 | 74 | 1017.9 |
| 20260501150632 | 14 | 64 | 8.0 | 16.1 | 0.00 | 0.00 | 0.00 | 77 | 1017.5 |
| 20260501144532 | 14 | 12 | 0.0 | 16.1 | 0.00 | 0.00 | 0.00 | 77 | 1018.2 |
| 20260501143832 | 14 | 11 | 0.0 | 16.1 | 0.00 | 0.00 | 0.00 | 77 | 1018.2 |
| 20260501143132 | 14 | 3 | 0.0 | 16.1 | 0.00 | 0.00 | 0.00 | 78 | 1017.9 |